Starlink 1234

operational
NORAD ID: 45190 Int'l Des: 2020-012 Owner: SPXS Country: US Constellation: starlink
LEOCIRCULARSTARLINK_TYPE

Über Starlink 1234

Beschreibung wird geladen...

Live-Position

3D-Globus wird geladen...

Nächste Überflüge

Höhenverlauf

Altitude vs Time

uPlot chart will show altitude changes over time

Zweizeiliger Elementsatz

1 45190U 20012N 25305.97506212 .00057273 00000-0 16000-2 0 9994
2 45190 53.0542 216.6475 0002880 110.7355 249.3955 15.36173859316095
Epoch: 1. Nov. 2025 • Age: 25 hours

Aktueller Status

Höhe 458.0 km
Geschwindigkeit 7.64 km/s
Subsatellitenpunkt 26.92°N, 176.47°W
Startdatum 17. Feb. 2020
Alter 5.7 years
Typ internet

Technische Details

Klassifizierung Payload
Masse 260.00 kg
Trockenmasse 248.00 kg
Gesamtmasse 260.00 kg
Länge 0.20 m
Durchmesser 2.80 m
Spannweite 9.00 m
Form Box + pan
Hersteller SPXS
Bus-Typ Starlink
Phasenstatus In Orbit
Besitzer/Staat SPXS/US

Große Konstellationen

Loading constellations...